Regional Weather Roundup
Issued by NWS

Home | Current Version | Previous Version | Graphics & Text | Print | Product List | Glossary On
Versions: 1 2 3 4 5 6 7 8 9 10 11 12 13 14 15 16 17 18 19 20 21 22 23 24 25 26 27 28 29 30 31 32 33 34 35 36 37 38 39 40 41 42 43 44 45 46 47 48 49 50
000
ASUS43 KOAX 250002
RWRNE

WEATHER ROUNDUP FOR NEBRASKA
NATIONAL WEATHER SERVICE OMAHA NE
700 PM CDT SAT JUN 24 2017

NOTES: SATELLITE DATA IS BEING USED TO AUGMENT CLOUD COVER ABOVE
       12000 FEET.
       "FAIR" INDICATES FEW OR NO CLOUDS BELOW 12,000 FEET WITH NO
       SIGNIFICANT WEATHER AND/OR OBSTRUCTIONS TO VISIBILITY.

  * THESE STATIONS DO NOT REPORT WEATHER SUCH AS RAIN...SNOW OR FOG.

NEZ001>004-019>022-054>056-250100-
NEBRASKA PANHANDLE

CITY           SKY/WX    TMP DP  RH WIND       PRES   REMARKS
SCOTTSBLUFF    PTSUNNY   74  36  25 NE7       30.25F
6HR MIN TEMP:  69; 6HR MAX TEMP:  78;

ALLIANCE       PTSUNNY   73  37  27 NE13      30.26S
6HR MIN TEMP:  70; 6HR MAX TEMP:  76;

CHADRON        MOSUNNY   76  27  16 NW9       30.23S
6HR MIN TEMP:  70; 6HR MAX TEMP:  78;

GORDON         FAIR      71  34  25 N7        30.26S
6HR MIN TEMP:  64; 6HR MAX TEMP:  73;

KIMBALL        SUNNY     72  38  29 CALM      30.29F
SIDNEY         MOSUNNY   74  34  23 SE7       30.28S
6HR MIN TEMP:  70; 6HR MAX TEMP:  77;

$$

NEZ057>060-069>072-079>082-250100-
SOUTHWEST NEBRASKA

CITY           SKY/WX    TMP DP  RH WIND       PRES   REMARKS
NORTH PLATTE   SUNNY     77  38  24 W8        30.22F
6HR MIN TEMP:  70; 6HR MAX TEMP:  79;

IMPERIAL       MOSUNNY   73  42  32 E7        30.24F
6HR MIN TEMP:  69; 6HR MAX TEMP:  73; 6HR PCP: TRACE;

LEXINGTON      CLOUDY    74  44  33 NW6       30.22S
MCCOOK         CLOUDY    69  55  60 E5        30.23S
6HR MIN TEMP:  68; 6HR MAX TEMP:  77; 6HR PCP:  0.01;

OGALLALA       MOSUNNY   77  34  21 SE7       30.24F
$$

NEZ005>010-023>029-035>040-094-250100-
NORTH CENTRAL NEBRASKA

CITY           SKY/WX    TMP DP  RH WIND       PRES   REMARKS
VALENTINE      MOSUNNY   75  28  17 NW13      30.21S
6HR MIN TEMP:  73; 6HR MAX TEMP:  79;

AINSWORTH      SUNNY     74  35  24 N20       30.21F
BROKEN BOW     MOSUNNY   72  36  26 N10       30.22F
6HR MIN TEMP:  72; 6HR MAX TEMP:  79;

O`NEILL        SUNNY     74  38  27 NW17G28   30.18S
ORD            CLOUDY    70  35  27 W7        30.19S
6HR MIN TEMP:  70; 6HR MAX TEMP:  80;

THEDFORD       PTSUNNY   72  36  27 N8        30.25S
$$

NEZ041-046>049-061>064-073>077-083>087-250100-
SOUTH CENTRAL NEBRASKA

CITY           SKY/WX    TMP DP  RH WIND       PRES   REMARKS
GRAND ISLAND   CLOUDY    74  39  28 NW9       30.20R
6HR MIN TEMP:  73; 6HR MAX TEMP:  81; 6HR PCP: TRACE;

AURORA         CLOUDY    73  41  32 NW6       30.19R
HASTINGS       CLOUDY    73  43  33 W10       30.21F
6HR MIN TEMP:  73; 6HR MAX TEMP:  78;

HEBRON         CLOUDY    75  40  28 W7        30.19S
HOLDREGE       PTSUNNY   73  42  31 SW8       30.21F
KEARNEY *      CLOUDY    75  39  27 W13       30.21S
YORK           CLOUDY    75  39  27 NW9       30.18S
$$

NEZ011>018-030>034-042>045-250100-
NORTHEAST NEBRASKA

CITY           SKY/WX    TMP DP  RH WIND       PRES   REMARKS
NORFOLK        SUNNY     75  35  23 NW13G26   30.13F
6HR MIN TEMP:  75; 6HR MAX TEMP:  79;

ALBION         CLOUDY    74  32  20 NW8G17    30.17S
BLAIR          MOSUNNY   76  38  25 NW12G18   30.12S
FREMONT        PTSUNNY   76  37  24 NW18      30.13S
TEKAMAH        SUNNY     78  36  21 NW21      30.11R
6HR MIN TEMP:  77; 6HR MAX TEMP:  82;

WAYNE          SUNNY     75  37  24 NW18G29   30.13S
$$

NEZ050>053-065>068-078-088>093-250100-
SOUTHEAST NEBRASKA

CITY           SKY/WX    TMP DP  RH WIND       PRES   REMARKS
LINCOLN        PTSUNNY   78  39  24 NW10      30.15R
6HR MIN TEMP:  77; 6HR MAX TEMP:  81;

OMAHA EPPLEY   PTSUNNY   77  38  24 NW14      30.10F
6HR MIN TEMP:  76; 6HR MAX TEMP:  82;

BEATRICE       CLOUDY    75  43  32 W9        30.16S
FALLS CITY     MOSUNNY   76  46  34 W9        30.13S
6HR MIN TEMP:  74; 6HR MAX TEMP:  79;

NEBRASKA CITY  SUNNY     77  46  32 NW13G18   30.13F
PLATTSMOUTH    CLOUDY    76  42  29 NW7       30.13S
$$

NEZ044-045-051>053-067-250100-
OMAHA AREA

CITY           SKY/WX    TMP DP  RH WIND       PRES   REMARKS
OMAHA EPPLEY   PTSUNNY   77  38  24 NW14      30.10F
6HR MIN TEMP:  76; 6HR MAX TEMP:  82;

BLAIR          MOSUNNY   76  38  25 NW12G18   30.12S
FREMONT        PTSUNNY   76  37  24 NW18      30.13S
MILLARD        CLOUDY    78  42  27 NW14      30.12S
OFFUTT AFB     PTSUNNY   76  40  27 NW14      30.11S
PLATTSMOUTH    CLOUDY    76  42  29 NW7       30.13S
WAHOO          FAIR      78  34  20 NW14G20   30.13S
$$




USA.gov is the U.S. government's official web portal to all federal, state and local government web resources and services.